Location: Asheville, NC
(35.6000°N, 82.5500°W)
Time: 15:35:39
(UTC-04:00)

Vanguard 1 - Pass Details

Date: 13 March 2018
Orbit: 650 x 3833 km, 34.3° (Epoch: 24 June)

Event Time Altitude Azimuth Distance (km) Brightness Sun altitude
Rises 10:08:37 0° 239° (WSW) 7,150 14.2 27.6°
Reaches altitude 10° 10:12:58 10° 237° (WSW) 6,404 14.0 28.4°
Maximum altitude 10:35:32 72° 158° (SSE) 3,922 13.9 32.4°
Drops below altitude 10° 10:56:07 10° 79° (E) 5,942 14.7 35.9°
Sets 10:59:57 0° 78° (ENE) 6,641 14.8 36.5°
